sat.trackr.live / text

‹ back to catalog

MEASAT 3D

NORAD 52904 · 2022-067B

PAYLOAD ACTIVE UNKNOWN

§ Identity

Operator
Country
MALA
Launch date
2022-06-22
Launch site
FRGUI
Launch vehicle
Mass (kg)
RCS (m²)

Purposes: comms

External: N2YO · Heavens-Above · Gunter

§ Orbital elements

Epoch: 2026-09-19T20:39:23.995296Z

Period
1,436.11 min
Inclination
0.0480°
Eccentricity
0.0001666
Mean motion
1.00271157 rev/d
Perigee alt
35,779.7 km
Apogee alt
35,793.8 km
Semi-major
42,164.9 km
B*
0.0000e+0
RAAN
327.2710°
Arg perigee
266.1852°
Mean anomaly
166.6710°
Rev number
1,559

§ Raw data

MEASAT 3D1 52904U 22067B   26262.86069439 -.00000246  00000+0  00000+0 0  99912 52904   0.0480 327.2710 0001666 266.1852 166.6710  1.00271157 15596

JSON: /api/v1/satellites/52904 · /tle

For live sub-satellite position, see the globe view (requires WebGL).

§ Visibility from observer

Set your observer location to see the next 7 days of passes ≥ 10°. The values pass through the URL so the page stays shareable.

No JS? Fill the form by hand. The geolocation button needs JavaScript.